Regional Weather Roundup
Issued by NWS

Home | Current Version | Previous Version | Text Only | Print | Product List | Glossary On
Versions: 1 2 3 4 5 6 7 8 9 10 11 12 13 14 15 16 17 18 19 20 21 22 23 24 25 26 27 28 29 30 31 32 33 34 35 36 37 38 39 40 41 42 43 44 45 46 47 48 49 50
000
ASUS44 KLIX 241712
RWRLA
LOUISIANA WEATHER ROUNDUP
NATIONAL WEATHER SERVICE NEW ORLEANS LA
1200 PM CDT TUE MAY 24 2016

NOTE: "FAIR" INDICATES FEW OR NO CLOUDS BELOW 12,000 FEET WITH NO
      SIGNIFICANT WEATHER AND/OR OBSTRUCTIONS TO VISIBILITY.
      SKY/WX - SKY CONDITION AND SIGNIFICANT WEATHER.
      TMP - AIR TEMPERATURE.    DP   - DEWPOINT TEMPERATURE.
      RH  - RELATIVE HUMIDITY.  PRES - PRESSURE.
      HX  - HEAT INDEX.         WCI  - WIND CHILL INDEX.

*  THESE STATIONS ARE NOT NWS OR FAA STATIONS AND ARE NOT UNDER
   NWS QUALITY CONTROL.

LAZ040-048-061>063-065-066-069-241800-
SOUTHEAST LOUISIANA

CITY           SKY/WX    TMP DP  RH WIND       PRES   REMARKS
N.O. AUDUBON     N/A     87  70  57 MISG        N/A
N.O. INTL ARPT PTSUNNY   86  68  54 S7        30.09S
N.O. LAKEFRONT MOSUNNY   84  67  56 E10       30.10S
N.O. DOWNTOWN* FAIR      84  68  58 SE9       30.10S
RESERVE*       PTSUNNY   85  71  61 SE8       30.09S
SLIDELL        MOSUNNY   83  67  58 E7        30.11R
BATON ROUGE    MOSUNNY   84  67  56 SE9       30.08S
BOOTHVILLE     NOT AVBL
BELLE CHASSE   MOSUNNY   83  70  64 SE7       30.10R
BOGALUSA*      FAIR      84  63  48 S12       30.13S
GALLIANO*      PTSUNNY   83  72  69 SE9       30.10R
NEW ROADS*     FAIR      82  70  66 S6        30.08S
GONZALES*      FAIR      84  70  63 S3        30.08S
HAMMOND*       MOSUNNY   84  64  51 SE8       30.10S
HOUMA*         PTSUNNY   82  73  74 S8        30.09R
PORT FOURCHON* MOSUNNY   81  72  74 SE13      30.10R

$$

LAZ041-044-053-054-241800-
SOUTHWEST LOUISIANA

CITY           SKY/WX    TMP DP  RH WIND       PRES   REMARKS
LAKE CHARLES   CLOUDY    86  72  62 SE15      30.05R
LAFAYETTE      PTSUNNY   85  71  63 S8        30.07S
PATTERSON      PTSUNNY   83  72  69 SE8       30.08F
SALT POINT       N/A     83  73  72 SE9       30.06R
NEW IBERIA     MOSUNNY   85  70  60 S10       30.08R
CHENAULT AIRPK CLOUDY    82  72  69 SE12      30.05R

$$

LAZ027-028-241800-
CENTRAL LOUISIANA

CITY           SKY/WX    TMP DP  RH WIND       PRES   REMARKS
FORT POLK      PTSUNNY   84  70  61 S14       30.05S
ALEXANDRIA INT MOSUNNY   84  70  62 SE10      30.05S
ALEXANDRIA     PTSUNNY   85  68  56 SE5       30.07S

$$

LAZ001-002-241800-
NORTHWEST LOUISIANA

CITY           SKY/WX    TMP DP  RH WIND       PRES   REMARKS
SHREVEPORT     PTSUNNY   83  70  64 SE12      30.03S
BARKSDALE AFB  PTSUNNY   83  69  61 SE10      30.04F
DTN SHREVEPORT CLOUDY    81  69  67 SE10      30.04R

$$

LAZ014-016-241800-
NORTHEAST LOUISIANA

CITY           SKY/WX    TMP DP  RH WIND       PRES   REMARKS
MONROE         SUNNY     85  63  47 S9        30.07F
TALLULAH       NOT AVBL

$$




USA.gov is the U.S. government's official web portal to all federal, state and local government web resources and services.